West Memphis, AR

8:46 AM CDT on May 30, 2017 (GMT -0500)
West Memphis Municipal

Weather History for KAWM - January, 2013

Change the Weather History Date:

Thursday, January 10, 2013

  Actual Average Record
Temperature  
Mean Temperature 60 °F -  
Max Temperature 66 °F 44 °F 72 °F (1963)
Min Temperature 54 °F 27 °F 0 °F (1982)
Degree Days  
Heating Degree Days 5    
Growing Degree Days 10 (Base 50)    
Moisture  
Dew Point 60 °F    
Average Humidity 93    
Maximum Humidity 100    
Minimum Humidity 79    
Precipitation  
Precipitation 0.72 in - - ()
Sea Level Pressure  
Sea Level Pressure 30.03 in    
Wind  
Wind Speed 14 mph (SSE)    
Max Wind Speed 25 mph    
Max Gust Speed 33 mph    
Visibility 8 miles    
Events Rain    
Averages and records for this station are not official NWS values.
T = Trace of Precipitation, MM = Missing Value Source: NWS Daily Summary

Daily Weather History Graph

Daily Weather History Graph

Search for Another Location

Airport or City:

Trip Planner

Search our weather history database for the weather conditions in past years. The results will help you decide how hot, cold, wet, or windy it might be!

Date:

Astronomy

Jan. 10, 2013 Rise Set
Actual Time 7:09 AM CST 5:07 PM CST
Civil Twilight 6:41 AM CST 5:35 PM CST
Nautical Twilight 6:10 AM CST 6:06 PM CST
Astronomical Twilight 5:39 AM CST 6:37 PM CST
Moon 5:49 AM CST (1/10) 4:15 PM CST (1/10)
Length of Visible Light 10h 53m
Length of Day
9h 58m
Waning Crescent, 2% of the Moon is Illuminated
Jan 10
Waning Crescent
Jan 11
New
Jan 18
First Quarter
Jan 26
Full
Feb 3
Last Quarter

Hourly Weather History & Observations

Time (CST) Temp. Dew Point Humidity Pressure Visibility Wind Dir Wind Speed Gust Speed Precip Events Conditions
12:53 AM 54.0 °F 53.1 °F 97% 30.25 in 10.0 mi East 12.7 mph - 0.11 in Rain Light Rain
1:11 AM 55.4 °F 53.6 °F 94% 30.25 in 10.0 mi East 8.1 mph - 0.02 in Rain Light Rain
1:53 AM 55.0 °F 54.0 °F 96% 30.24 in 10.0 mi East 11.5 mph - 0.06 in   Overcast
2:53 AM 55.0 °F 55.0 °F 100% 30.21 in 9.0 mi ESE 10.4 mph - 0.04 in Rain Light Rain
3:53 AM 55.9 °F 55.9 °F 100% 30.18 in 10.0 mi ESE 9.2 mph - 0.06 in Rain Light Rain
4:53 AM 57.0 °F 57.0 °F 100% 30.13 in 10.0 mi East 6.9 mph - 0.04 in Rain Light Rain
5:53 AM 57.9 °F 57.9 °F 100% 30.14 in 10.0 mi ESE 6.9 mph - 0.04 in   Overcast
6:49 AM 60.8 °F 59.0 °F 94% 30.14 in 10.0 mi SE 10.4 mph - 0.03 in   Mostly Cloudy
6:53 AM 60.1 °F 59.0 °F 96% 30.14 in 10.0 mi SSE 12.7 mph - 0.03 in   Mostly Cloudy
7:19 AM 60.8 °F 59.0 °F 94% 30.14 in 10.0 mi SSE 17.3 mph 20.7 mph 0.01 in Rain Light Rain
7:53 AM 61.0 °F 60.1 °F 97% 30.14 in 10.0 mi SSE 15.0 mph - 0.02 in Rain Light Rain
8:53 AM 61.0 °F 60.1 °F 97% 30.13 in 10.0 mi SSE 21.9 mph 29.9 mph 0.02 in Rain Light Rain
9:53 AM 61.0 °F - N/A% 30.13 in 8.0 mi SSE 18.4 mph 27.6 mph 0.02 in Rain Light Rain
10:53 AM 62.1 °F - N/A% 30.13 in 7.0 mi SSE 16.1 mph - 0.02 in Rain Light Rain
11:22 AM 62.6 °F - N/A% 30.12 in 3.0 mi SSE 13.8 mph - N/A Rain Light Rain
11:34 AM 62.6 °F - N/A% 30.11 in 3.0 mi SSE 13.8 mph - N/A Rain Rain
11:38 AM 62.6 °F - N/A% 30.10 in 2.0 mi SE 15.0 mph - N/A Rain Rain
11:46 AM 62.6 °F - N/A% 30.10 in 4.0 mi SSE 11.5 mph - N/A Rain Light Rain
11:53 AM 62.1 °F - N/A% 30.09 in 4.0 mi SSE 12.7 mph 19.6 mph N/A Rain Light Rain
12:42 PM 62.6 °F - N/A% 30.04 in 3.0 mi SE 16.1 mph - 0.03 in Rain Rain
12:50 PM 62.6 °F - N/A% 30.03 in 6.0 mi SE 18.4 mph - 0.03 in Rain Light Rain
12:53 PM 62.1 °F - N/A% 30.01 in 7.0 mi SE 18.4 mph - 0.03 in Rain Light Rain
1:13 PM 62.6 °F - N/A% 29.93 in 10.0 mi ESE 17.3 mph 27.6 mph 0.01 in Rain Light Rain
1:23 PM 64.4 °F - N/A% 29.96 in 10.0 mi SSE 23.0 mph 29.9 mph 0.02 in   Overcast
1:27 PM 64.4 °F - N/A% 29.96 in 10.0 mi SSE 21.9 mph 29.9 mph 0.02 in   Overcast
1:34 PM 64.4 °F - N/A% 29.97 in 10.0 mi SSE 24.2 mph 33.4 mph 0.03 in   Overcast
1:50 PM 64.4 °F - N/A% 29.96 in 10.0 mi SSE 25.3 mph 33.4 mph 0.03 in   Mostly Cloudy
1:53 PM 64.9 °F - N/A% 29.96 in 10.0 mi SSE 21.9 mph 33.4 mph 0.04 in   Mostly Cloudy
2:53 PM 64.9 °F 64.9 °F 100% 29.96 in 10.0 mi SSE 20.7 mph - 0.03 in   Mostly Cloudy
3:12 PM 64.4 °F 64.4 °F 100% 29.92 in 10.0 mi SSE 19.6 mph 27.6 mph 0.01 in   Mostly Cloudy
3:53 PM 66.0 °F 64.0 °F 93% 29.90 in 10.0 mi SSE 21.9 mph 31.1 mph 0.03 in   Mostly Cloudy
4:01 PM 64.4 °F 62.6 °F 94% 29.90 in 10.0 mi South 15.0 mph - N/A   Partly Cloudy
4:53 PM 64.9 °F 61.0 °F 87% 29.90 in 10.0 mi SSE 20.7 mph 26.5 mph 0.02 in   Clear
5:17 PM 64.4 °F 60.8 °F 88% 29.88 in 10.0 mi SSE 19.6 mph 26.5 mph 0.01 in   Mostly Cloudy
5:53 PM 66.0 °F 62.1 °F 87% 29.88 in 10.0 mi SSE 18.4 mph 25.3 mph 0.02 in   Overcast
6:53 PM 66.9 °F 62.1 °F 84% 29.90 in 10.0 mi South 20.7 mph 29.9 mph 0.02 in   Overcast
7:40 PM 66.2 °F 60.8 °F 83% 29.93 in 10.0 mi SSW 19.6 mph 33.4 mph 0.02 in   Overcast
7:53 PM 66.9 °F 60.1 °F 79% 29.94 in 10.0 mi South 23.0 mph 33.4 mph 0.02 in   Overcast
8:21 PM 64.4 °F 62.6 °F 94% 29.95 in 10.0 mi SSW 18.4 mph 28.8 mph 0.01 in   Overcast
8:53 PM 63.0 °F 62.1 °F 97% 29.95 in 6.0 mi SSW 17.3 mph 26.5 mph 0.02 in Rain Light Rain
9:14 PM 62.6 °F 62.6 °F 100% 29.95 in 6.0 mi SSW 11.5 mph - 0.00 in Rain Light Rain
9:53 PM 63.0 °F 61.0 °F 93% 29.94 in 9.0 mi SSW 9.2 mph 17.3 mph 0.01 in Rain Light Rain
9:58 PM 62.6 °F 62.6 °F 100% 29.95 in 9.0 mi SW 6.9 mph - 0.00 in Rain Light Rain
10:32 PM 62.6 °F 60.8 °F 94% 29.95 in 1.8 mi SW 6.9 mph - 0.01 in Rain Rain
10:43 PM 60.8 °F 57.2 °F 88% 29.95 in 3.0 mi SW 11.5 mph 28.8 mph 0.01 in Rain Light Rain
10:53 PM 62.1 °F 57.9 °F 86% 29.94 in 9.0 mi SW 16.1 mph 28.8 mph 0.01 in Rain Light Rain
11:53 PM 62.1 °F 57.0 °F 84% 29.93 in 10.0 mi SSW 8.1 mph 16.1 mph 0.01 in   Overcast